TimeMDT,TemperatureF,Dew PointF,Humidity,Sea Level PressureIn,VisibilityMPH,Wind Direction,Wind SpeedMPH,Gust SpeedMPH,PrecipitationIn,Events,Conditions,WindDirDegrees,DateUTC
12:53 AM,51.1,36.0,56,30.12,10.0,NNE,3.5,-,N/A,,Clear,30,2012-10-01 06:53:00
1:53 AM,46.9,36.0,66,30.14,10.0,Calm,Calm,-,N/A,,Clear,0,2012-10-01 07:53:00
2:53 AM,46.9,37.9,71,30.17,10.0,NNE,5.8,-,N/A,,Partly Cloudy,20,2012-10-01 08:53:00
3:46 AM,44.6,39.2,81,30.29,10.0,Calm,Calm,-,N/A,,Mostly Cloudy,0,2012-10-01 09:46:00
3:53 AM,45.0,39.0,80,30.19,10.0,Calm,Calm,-,N/A,,Mostly Cloudy,0,2012-10-01 09:53:00
4:53 AM,46.0,39.0,76,30.20,10.0,NNE,10.4,-,N/A,,Overcast,20,2012-10-01 10:53:00
5:53 AM,45.0,37.9,76,30.22,10.0,NW,3.5,-,N/A,,Overcast,320,2012-10-01 11:53:00
6:31 AM,44.6,37.4,76,30.32,10.0,Calm,Calm,-,N/A,,Overcast,0,2012-10-01 12:31:00
6:53 AM,44.1,37.0,76,30.22,10.0,Variable,3.5,-,N/A,,Mostly Cloudy,0,2012-10-01 12:53:00
7:18 AM,41.0,37.4,87,30.32,10.0,Calm,Calm,-,N/A,,Mostly Cloudy,0,2012-10-01 13:18:00
7:48 AM,44.6,37.4,76,30.33,10.0,West,5.8,-,N/A,,Scattered Clouds,270,2012-10-01 13:48:00
7:53 AM,44.1,37.9,79,30.25,10.0,West,4.6,-,N/A,,Partly Cloudy,270,2012-10-01 13:53:00
8:53 AM,48.0,36.0,63,30.25,10.0,Variable,3.5,-,N/A,,Clear,0,2012-10-01 14:53:00
9:53 AM,51.1,26.1,38,30.25,10.0,North,8.1,-,N/A,,Clear,350,2012-10-01 15:53:00
10:53 AM,55.0,25.0,31,30.22,10.0,NE,6.9,-,N/A,,Clear,50,2012-10-01 16:53:00
11:53 AM,57.9,21.0,24,30.19,10.0,NE,5.8,-,N/A,,Clear,40,2012-10-01 17:53:00
12:53 PM,60.1,19.0,20,30.16,10.0,Variable,4.6,-,N/A,,Clear,0,2012-10-01 18:53:00
1:53 PM,61.0,18.0,19,30.14,10.0,Variable,5.8,-,N/A,,Clear,0,2012-10-01 19:53:00
2:53 PM,60.1,32.0,35,30.11,10.0,SSE,9.2,16.1,N/A,,Clear,160,2012-10-01 20:53:00
3:53 PM,60.1,32.0,35,30.10,10.0,SE,9.2,-,N/A,,Clear,130,2012-10-01 21:53:00
4:53 PM,60.1,30.0,32,30.08,10.0,South,6.9,16.1,N/A,,Clear,170,2012-10-01 22:53:00
5:53 PM,57.0,30.9,37,30.09,10.0,South,4.6,-,N/A,,Clear,190,2012-10-01 23:53:00
6:53 PM,51.1,32.0,48,30.10,10.0,SSE,4.6,-,N/A,,Clear,160,2012-10-02 00:53:00
7:53 PM,48.0,32.0,54,30.10,10.0,South,3.5,-,N/A,,Clear,180,2012-10-02 01:53:00
8:53 PM,42.1,30.9,65,30.10,10.0,Calm,Calm,-,N/A,,Clear,0,2012-10-02 02:53:00
9:53 PM,39.9,30.0,68,30.07,10.0,Calm,Calm,-,N/A,,Clear,0,2012-10-02 03:53:00
10:53 PM,37.9,28.0,68,30.04,10.0,West,4.6,-,N/A,,Clear,280,2012-10-02 04:53:00
11:53 PM,39.0,28.0,65,30.00,10.0,WSW,4.6,-,N/A,,Clear,250,2012-10-02 05:53:00